Vorticity
nan nan nan nan nan nan nan nan nan nan nan nan nan nan nan nan nan nan nan nan nan nan nan nan nan nan nan nan nan nan nan nan nan nan nan nan nan nan nan nan nan nan nan
nan 9 9 9 9 9 9 9 10 13 10 9 9 9 11 12 11 11 11 10 9 10 9 8 13 14 13 13 12 11 12 13 18 16 11 8 8 11 8 10 15 12 nan
nan 9 8 9 9 8 10 10 9 10 10 11 11 9 9 11 11 11 11 10 9 8 10 9 8 13 14 13 13 13 13 13 15 15 12 12 5 8 10 7 7 8 nan
nan 9 8 9 9 10 9 10 8 9 10 9 10 11 9 10 11 11 10 10 11 9 10 10 9 11 15 17 13 14 15 14 13 13 11 12 10 9 10 8 6 6 nan
nan 8 8 9 9 10 9 10 9 9 9 9 10 10 11 10 12 12 11 10 11 10 10 10 8 6 9 21 19 17 19 14 13 10 10 10 11 9 9 13 10 11 nan
nan 8 8 8 9 8 10 9 8 8 9 9 8 9 13 6 6 15 18 10 9 11 11 10 7 6 6 4 10 14 21 20 17 12 10 8 10 13 10 12 14 14 nan
nan 9 9 9 9 8 8 9 8 8 8 9 8 8 10 7 7 11 15 12 7 8 10 11 11 8 10 5 1 3 5 11 15 14 9 9 10 12 13 12 16 14 nan
nan 9 8 9 9 10 9 9 8 8 7 7 8 8 9 5 9 13 13 13 5 7 8 10 10 9 14 16 9 6 5 4 7 13 12 12 12 14 17 12 17 18 nan
nan 12 12 9 9 9 9 9 10 9 9 8 7 7 10 1 6 17 16 12 8 6 7 8 13 6 8 22 17 9 10 7 3 7 8 8 8 12 21 17 9 16 nan
nan 10 10 12 10 11 12 9 9 10 10 9 9 4 6 6 -1 14 21 12 9 8 7 0 3 12 7 18 21 11 10 8 8 5 3 3 4 1 8 18 11 10 nan
nan 9 9 10 8 8 10 11 12 10 10 10 9 8 3 5 2 3 17 21 11 9 9 8 -3 1 8 10 17 17 14 12 10 11 10 8 8 8 7 7 12 11 nan
nan 8 9 9 9 9 10 9 9 10 12 10 9 8 7 1 2 7 8 15 17 14 9 11 5 1 7 8 10 9 17 19 12 10 9 9 9 9 10 9 9 14 nan
nan 9 9 9 10 10 10 12 12 11 10 10 10 9 8 7 -0 -1 6 8 13 16 6 4 7 5 9 3 0 9 14 13 10 10 10 10 10 13 12 12 10 9 nan
nan 9 10 9 8 12 11 9 10 12 12 12 10 10 10 8 9 9 8 5 8 11 13 9 6 7 7 8 4 5 9 10 10 9 9 10 10 11 11 11 11 13 nan
nan 9 9 8 8 8 10 12 12 11 15 15 14 13 9 10 8 10 14 14 12 14 15 11 10 9 9 11 10 8 9 9 10 10 10 10 10 10 10 11 11 11 nan
nan 9 9 10 9 7 6 7 10 10 9 10 13 14 10 6 9 12 14 11 12 21 17 10 10 10 10 10 10 10 9 10 10 10 10 9 10 10 10 11 10 10 nan
nan 10 9 10 11 12 12 8 4 5 5 5 4 6 9 6 6 11 15 12 9 15 13 10 10 10 10 10 10 10 10 10 11 11 10 9 9 9 10 10 9 9 nan
nan 12 9 9 11 12 10 12 14 11 6 5 6 6 4 2 3 8 14 14 9 10 12 10 10 10 10 10 10 10 10 11 10 10 12 11 8 9 10 10 10 9 nan
nan 10 11 10 10 11 10 10 10 11 12 14 10 2 2 11 9 3 12 13 10 9 10 10 10 10 10 11 11 10 10 11 11 11 10 11 11 9 10 10 9 9 nan
nan 11 9 10 11 10 10 11 10 11 11 10 10 9 9 12 14 8 7 10 10 9 10 10 10 10 10 11 11 10 10 10 10 12 11 10 10 10 10 10 10 10 nan
nan 10 10 9 10 10 11 10 11 11 11 13 11 9 8 10 11 11 10 10 10 10 10 11 11 10 11 10 10 10 11 10 11 11 10 10 10 11 11 11 10 9 nan
nan 10 10 10 11 12 11 10 10 11 11 13 11 10 11 11 10 11 10 10 10 10 10 10 10 10 12 10 10 11 10 12 11 10 9 9 10 11 11 11 11 10 nan
nan 11 10 10 10 10 11 11 12 11 10 10 10 12 13 12 11 11 11 10 11 10 10 11 10 12 11 10 10 9 12 11 10 10 9 10 9 10 11 11 11 10 nan
nan 11 11 11 11 10 11 9 8 10 12 13 12 11 11 11 12 11 11 11 10 11 10 11 10 10 11 11 9 12 11 9 9 8 10 11 12 10 10 13 11 9 nan
nan 11 11 10 10 11 10 12 11 11 10 10 10 11 11 11 12 11 11 12 10 9 10 11 9 9 10 9 13 12 8 10 11 10 11 16 18 10 13 14 7 9 nan
nan nan nan nan nan nan nan nan nan nan nan nan nan nan nan nan nan nan nan nan nan nan nan nan nan nan nan nan nan nan nan nan nan nan nan nan nan nan nan nan nan nan nan
CAPE
0 0 1 3 7 11 9 13 12 9 16 19 20 15 11 13 10 11 11 8 9 9 8 6 4 1 3 4 4 5 23 13 30 25 71 55 0 0 0 38 45 27 1
0 0 4 4 7 9 5 11 5 6 15 18 16 10 8 8 12 7 11 9 7 7 9 6 7 4 2 3 4 1 5 0 10 55 54 1 0 0 0 3 13 4 7
0 2 3 3 6 6 3 9 3 0 4 5 8 9 6 8 8 7 8 10 8 7 8 9 8 7 5 5 4 3 1 4 3 4 3 2 2 2 1 1 2 3 0
0 0 1 1 3 2 3 3 5 3 3 5 2 4 5 2 3 6 7 6 6 6 5 5 4 9 8 5 5 3 3 2 1 4 3 4 4 5 2 4 1 3 1
0 0 0 0 3 1 6 2 4 4 4 7 4 1 2 3 3 0 4 3 2 2 3 2 3 19 29 19 9 3 3 3 3 3 4 3 4 2 3 4 4 2 3
0 0 0 0 0 0 2 6 5 4 1 0 2 0 0 8 7 5 2 3 3 3 3 2 1 2 3 10 19 14 10 3 5 5 5 5 4 3 2 4 2 3 2
0 0 0 0 0 0 1 2 1 0 0 0 0 0 0 0 9 7 2 0 0 0 0 2 4 3 1 3 4 6 10 6 5 4 4 5 4 3 3 2 2 2 3
0 0 0 0 0 0 0 0 2 0 0 0 0 0 0 0 6 7 3 0 0 0 0 0 0 0 0 1 2 0 0 0 0 0 0 0 0 0 1 3 1 2 1
0 0 0 0 0 0 0 0 0 2 0 0 0 0 0 0 4 3 0 0 0 0 0 0 0 0 4 5 0 0 0 0 4 7 5 5 2 3 0 0 0 0 4
0 0 0 0 0 1 0 0 0 2 1 0 0 0 0 0 4 3 0 0 0 0 0 0 4 0 3 3 0 0 0 0 0 0 0 0 0 0 0 0 0 0 0
0 0 0 0 0 0 0 3 3 0 2 2 0 0 0 0 0 5 4 0 0 0 0 0 0 4 4 5 2 0 0 0 0 0 0 0 0 0 0 0 0 0 0
0 0 0 0 3 3 0 2 0 5 2 3 0 0 0 0 2 4 4 3 2 0 0 0 0 4 4 3 0 2 2 0 0 0 0 0 0 0 0 0 0 0 1
0 0 0 0 0 2 2 0 6 2 0 0 4 0 0 0 0 2 4 3 1 0 0 1 2 1 1 0 2 0 0 0 0 0 0 0 0 0 0 0 0 0 0
0 0 0 1 3 8 1 0 0 0 1 0 0 0 0 0 0 0 0 0 0 0 0 0 0 2 0 0 0 0 0 0 0 0 0 0 0 0 0 0 0 0 0
2 2 1 3 0 0 0 0 0 0 0 0 2 0 0 0 0 0 0 0 0 0 2 0 0 0 0 0 0 0 0 0 0 0 0 0 0 0 0 0 0 0 0
0 0 0 0 0 0 0 0 0 0 0 0 0 0 0 0 1 1 0 0 0 1 0 0 0 0 0 0 0 0 0 0 0 0 0 0 0 0 0 0 0 0 0
0 0 0 0 0 1 0 0 0 0 0 0 0 0 0 0 0 1 1 0 0 0 0 0 0 0 0 0 0 0 0 0 0 0 0 0 0 0 0 0 0 0 0
0 0 0 0 0 0 0 0 0 1 0 0 0 0 0 0 0 1 1 0 0 0 0 0 0 0 0 0 0 0 0 0 0 0 0 0 0 0 0 0 0 0 0
0 0 0 1 1 0 0 1 1 2 0 0 0 0 0 0 0 1 1 0 0 0 0 0 0 0 0 0 0 0 0 0 0 0 0 0 0 0 0 0 0 0 0
0 0 0 0 0 1 3 3 2 3 4 2 0 0 0 0 0 0 0 0 0 0 0 0 0 0 0 0 0 0 0 0 0 0 0 0 0 0 0 0 0 0 0
0 0 0 1 2 1 2 1 1 0 0 0 0 0 0 0 0 0 0 0 0 0 0 0 0 0 0 0 0 0 0 0 0 0 0 0 0 0 0 0 0 0 0
0 0 0 1 0 0 0 0 0 0 0 0 0 0 0 0 0 0 0 0 0 0 0 0 0 0 0 0 0 0 0 0 0 0 0 0 0 0 0 0 0 0 0
0 0 0 0 0 0 0 0 1 1 0 0 0 0 0 0 0 0 0 0 0 0 0 0 0 0 0 0 0 0 0 0 0 0 0 0 0 0 0 0 0 0 0
0 1 0 0 0 0 1 0 0 0 0 0 0 0 0 0 0 0 0 0 0 0 0 0 0 0 0 0 0 0 0 0 0 0 0 0 0 0 0 0 0 0 0
4 5 1 0 0 0 0 1 1 0 0 0 0 0 0 0 0 0 0 0 0 0 0 0 0 0 0 0 0 0 0 0 0 0 0 0 0 0 0 0 0 0 0
2 0 0 0 0 2 0 0 0 0 0 0 0 0 0 0 0 0 0 0 0 0 0 0 0 0 0 0 0 0 0 0 0 0 0 0 0 0 0 0 0 0 0